Time,TemperatureF,DewpointF,PressureIn,WindDirection,WindDirectionDegrees,WindSpeedMPH,WindSpeedGustMPH,Humidity,HourlyPrecipIn,Conditions,Clouds,dailyrainin,SoftwareType,DateUTC
2013-03-22 00:03:00,33.0,16.0,29.74,North,2,2.0,8.0,49,0.00,,,0.00,,2013-03-22 04:03:00,
2013-03-22 00:12:00,33.0,16.0,29.74,North,2,2.0,8.0,49,0.00,,,0.00,,2013-03-22 04:12:00,
2013-03-22 00:23:00,32.0,16.0,29.74,North,1,1.0,5.0,51,0.00,,,0.00,,2013-03-22 04:23:00,
2013-03-22 00:32:00,32.0,16.0,29.74,North,7,1.0,4.0,52,0.00,,,0.00,,2013-03-22 04:32:00,
2013-03-22 00:43:00,32.0,16.0,29.74,North,7,1.0,4.0,52,0.00,,,0.00,,2013-03-22 04:43:00,
2013-03-22 00:52:00,31.0,15.0,29.74,NNW,327,0.0,2.0,52,0.00,,,0.00,,2013-03-22 04:52:00,
2013-03-22 01:02:00,31.0,15.0,29.74,NNW,327,0.0,2.0,52,0.00,,,0.00,,2013-03-22 05:02:00,
2013-03-22 01:12:00,31.0,15.0,29.74,NNW,327,0.0,2.0,52,0.00,,,0.00,,2013-03-22 05:12:00,
2013-03-22 01:22:00,30.0,16.0,29.75,North,0,0.0,0.0,56,0.00,,,0.00,,2013-03-22 05:22:00,
2013-03-22 01:32:00,30.0,16.0,29.75,NW,314,0.0,3.0,55,0.00,,,0.00,,2013-03-22 05:32:00,
2013-03-22 01:42:00,30.0,16.0,29.75,NW,314,0.0,3.0,55,0.00,,,0.00,,2013-03-22 05:42:00,
2013-03-22 01:52:00,30.0,17.0,29.75,WNW,292,0.0,4.0,57,0.00,,,0.00,,2013-03-22 05:52:00,
2013-03-22 02:02:00,30.0,17.0,29.75,West,276,0.0,3.0,58,0.00,,,0.00,,2013-03-22 06:02:00,
2013-03-22 02:13:00,30.0,17.0,29.75,West,276,0.0,3.0,58,0.00,,,0.00,,2013-03-22 06:13:00,
2013-03-22 02:22:00,30.0,17.0,29.75,West,276,0.0,3.0,58,0.00,,,0.00,,2013-03-22 06:22:00,
2013-03-22 02:32:00,29.0,16.0,29.76,WNW,290,0.0,1.0,58,0.00,,,0.00,,2013-03-22 06:32:00,
2013-03-22 02:42:00,29.0,16.0,29.76,WNW,290,0.0,1.0,58,0.00,,,0.00,,2013-03-22 06:42:00,
2013-03-22 02:52:00,29.0,16.0,29.75,WNW,286,0.0,3.0,58,0.00,,,0.00,,2013-03-22 06:52:00,
2013-03-22 03:03:00,29.0,16.0,29.75,WNW,286,0.0,3.0,58,0.00,,,0.00,,2013-03-22 07:03:00,
2013-03-22 03:12:00,29.0,16.0,29.75,WNW,286,0.0,3.0,58,0.00,,,0.00,,2013-03-22 07:12:00,
2013-03-22 03:22:00,30.0,17.0,29.75,West,276,0.0,1.0,57,0.00,,,0.00,,2013-03-22 07:22:00,
2013-03-22 03:32:00,30.0,17.0,29.75,West,276,0.0,1.0,57,0.00,,,0.00,,2013-03-22 07:32:00,
2013-03-22 03:42:00,30.0,17.0,29.75,West,276,0.0,1.0,57,0.00,,,0.00,,2013-03-22 07:42:00,
2013-03-22 03:52:00,30.0,17.0,29.74,NNW,334,0.0,1.0,58,0.00,,,0.00,,2013-03-22 07:52:00,
2013-03-22 04:03:00,30.0,17.0,29.74,WNW,301,0.0,1.0,59,0.00,,,0.00,,2013-03-22 08:03:00,
2013-03-22 04:13:00,30.0,17.0,29.74,WNW,301,0.0,1.0,59,0.00,,,0.00,,2013-03-22 08:13:00,
2013-03-22 04:22:00,29.0,17.0,29.74,WNW,284,0.0,1.0,60,0.00,,,0.00,,2013-03-22 08:22:00,
2013-03-22 04:32:00,29.0,17.0,29.73,North,0,0.0,0.0,61,0.00,,,0.00,,2013-03-22 08:32:00,
2013-03-22 04:42:00,29.0,17.0,29.73,North,0,0.0,0.0,61,0.00,,,0.00,,2013-03-22 08:42:00,
2013-03-22 04:52:00,30.0,18.0,29.73,West,277,0.0,1.0,61,0.00,,,0.00,,2013-03-22 08:52:00,
2013-03-22 05:02:00,30.0,18.0,29.74,West,271,0.0,1.0,61,0.00,,,0.00,,2013-03-22 09:02:00,
2013-03-22 05:12:00,30.0,18.0,29.74,West,271,0.0,1.0,61,0.00,,,0.00,,2013-03-22 09:12:00,
2013-03-22 05:22:00,29.0,17.0,29.74,West,273,0.0,1.0,61,0.00,,,0.00,,2013-03-22 09:22:00,
2013-03-22 05:32:00,29.0,18.0,29.74,WNW,301,0.0,2.0,63,0.00,,,0.00,,2013-03-22 09:32:00,
2013-03-22 05:42:00,29.0,18.0,29.74,WNW,301,0.0,2.0,63,0.00,,,0.00,,2013-03-22 09:42:00,
2013-03-22 05:53:00,29.0,18.0,29.74,NNW,338,0.0,1.0,64,0.00,,,0.00,,2013-03-22 09:53:00,
2013-03-22 06:04:00,28.0,18.0,29.74,North,0,0.0,0.0,65,0.00,,,0.00,,2013-03-22 10:04:00,
2013-03-22 06:12:00,28.0,18.0,29.74,North,0,0.0,0.0,65,0.00,,,0.00,,2013-03-22 10:12:00,
2013-03-22 06:22:00,28.0,18.0,29.74,North,0,0.0,0.0,65,0.00,,,0.00,,2013-03-22 10:22:00,
2013-03-22 06:33:00,28.0,19.0,29.74,North,0,0.0,0.0,69,0.00,,,0.00,,2013-03-22 10:33:00,
2013-03-22 06:42:00,28.0,19.0,29.74,North,0,0.0,0.0,69,0.00,,,0.00,,2013-03-22 10:42:00,
2013-03-22 06:52:00,27.0,20.0,29.75,North,0,0.0,0.0,73,0.00,,,0.00,,2013-03-22 10:52:00,
2013-03-22 07:03:00,26.0,19.0,29.75,North,0,0.0,0.0,73,0.00,,,0.00,,2013-03-22 11:03:00,
2013-03-22 07:12:00,26.0,19.0,29.75,North,0,0.0,0.0,73,0.00,,,0.00,,2013-03-22 11:12:00,
2013-03-22 07:22:00,26.0,19.0,29.76,North,0,0.0,0.0,75,0.00,,,0.00,,2013-03-22 11:22:00,
2013-03-22 07:33:00,26.0,19.0,29.76,North,0,0.0,0.0,75,0.00,,,0.00,,2013-03-22 11:33:00,
2013-03-22 07:42:00,26.0,19.0,29.76,North,0,0.0,0.0,75,0.00,,,0.00,,2013-03-22 11:42:00,
2013-03-22 07:52:00,28.0,21.0,29.78,North,0,0.0,0.0,75,0.00,,,0.00,,2013-03-22 11:52:00,
2013-03-22 08:02:00,28.0,21.0,29.78,North,0,0.0,0.0,75,0.00,,,0.00,,2013-03-22 12:02:00,
2013-03-22 08:12:00,29.0,21.0,29.78,South,179,0.0,1.0,71,0.00,,,0.00,,2013-03-22 12:12:00,
2013-03-22 08:22:00,29.0,21.0,29.78,South,179,0.0,1.0,71,0.00,,,0.00,,2013-03-22 12:22:00,
2013-03-22 08:32:00,31.0,21.0,29.78,West,276,0.0,2.0,67,0.00,,,0.00,,2013-03-22 12:32:00,
2013-03-22 08:42:00,31.0,21.0,29.78,West,276,0.0,2.0,67,0.00,,,0.00,,2013-03-22 12:42:00,
2013-03-22 08:52:00,32.0,21.0,29.79,WNW,284,0.0,2.0,64,0.00,,,0.00,,2013-03-22 12:52:00,
2013-03-22 09:02:00,34.0,22.0,29.79,WNW,283,0.0,2.0,61,0.00,,,0.00,,2013-03-22 13:02:00,
2013-03-22 09:12:00,34.0,22.0,29.79,WNW,283,0.0,2.0,61,0.00,,,0.00,,2013-03-22 13:12:00,
2013-03-22 09:22:00,34.0,22.0,29.79,North,2,1.0,5.0,60,0.00,,,0.00,,2013-03-22 13:22:00,
2013-03-22 09:32:00,35.0,21.0,29.79,WNW,289,1.0,7.0,57,0.00,,,0.00,,2013-03-22 13:32:00,
2013-03-22 09:42:00,35.0,21.0,29.79,WNW,289,1.0,7.0,57,0.00,,,0.00,,2013-03-22 13:42:00,
2013-03-22 09:52:00,36.0,22.0,29.79,North,350,2.0,7.0,56,0.00,,,0.00,,2013-03-22 13:52:00,
2013-03-22 10:03:00,37.0,21.0,29.79,WNW,286,1.0,5.0,53,0.00,,,0.00,,2013-03-22 14:03:00,
2013-03-22 10:12:00,37.0,21.0,29.79,WNW,286,1.0,5.0,53,0.00,,,0.00,,2013-03-22 14:12:00,
2013-03-22 10:22:00,36.0,20.0,29.79,NNW,345,2.0,5.0,52,0.00,,,0.00,,2013-03-22 14:22:00,
2013-03-22 10:32:00,36.0,20.0,29.79,North,355,3.0,10.0,52,0.00,,,0.00,,2013-03-22 14:32:00,
2013-03-22 10:42:00,36.0,20.0,29.79,North,355,3.0,10.0,52,0.00,,,0.00,,2013-03-22 14:42:00,
2013-03-22 10:52:00,38.0,21.0,29.79,WNW,282,2.0,7.0,49,0.00,,,0.00,,2013-03-22 14:52:00,
2013-03-22 11:03:00,38.0,21.0,29.79,WNW,301,2.0,9.0,49,0.00,,,0.00,,2013-03-22 15:03:00,
2013-03-22 11:12:00,38.0,21.0,29.79,WNW,301,2.0,9.0,49,0.00,,,0.00,,2013-03-22 15:12:00,
2013-03-22 11:22:00,38.0,21.0,29.79,North,355,3.0,11.0,49,0.00,,,0.00,,2013-03-22 15:22:00,
2013-03-22 11:33:00,38.0,21.0,29.79,North,355,3.0,11.0,49,0.00,,,0.00,,2013-03-22 15:33:00,
2013-03-22 11:43:00,38.0,21.0,29.79,North,355,3.0,11.0,49,0.00,,,0.00,,2013-03-22 15:43:00,
2013-03-22 11:53:00,38.0,21.0,29.79,North,9,3.0,8.0,49,0.00,,,0.00,,2013-03-22 15:53:00,
2013-03-22 12:03:00,40.0,21.0,29.79,NNW,335,2.0,11.0,46,0.00,,,0.00,,2013-03-22 16:03:00,
2013-03-22 12:13:00,41.0,22.0,29.80,NW,322,4.0,11.0,46,0.00,,,0.00,,2013-03-22 16:13:00,
2013-03-22 12:23:00,41.0,22.0,29.80,NW,322,4.0,11.0,46,0.00,,,0.00,,2013-03-22 16:23:00,
2013-03-22 12:32:00,42.0,22.0,29.79,NW,321,4.0,9.0,45,0.00,,,0.00,,2013-03-22 16:32:00,
2013-03-22 12:42:00,42.0,21.0,29.79,North,349,4.0,11.0,43,0.00,,,0.00,,2013-03-22 16:42:00,
2013-03-22 12:52:00,42.0,21.0,29.79,North,349,4.0,11.0,43,0.00,,,0.00,,2013-03-22 16:52:00,
2013-03-22 13:03:00,40.0,20.0,29.79,North,10,4.0,14.0,44,0.00,,,0.00,,2013-03-22 17:03:00,
2013-03-22 13:12:00,40.0,20.0,29.80,NNW,340,5.0,11.0,45,0.00,,,0.00,,2013-03-22 17:12:00,
2013-03-22 13:23:00,40.0,20.0,29.80,NNW,340,5.0,11.0,45,0.00,,,0.00,,2013-03-22 17:23:00,
2013-03-22 13:32:00,40.0,20.0,29.80,NNW,340,5.0,11.0,45,0.00,,,0.00,,2013-03-22 17:32:00,
2013-03-22 13:42:00,40.0,20.0,29.80,NNW,340,5.0,11.0,45,0.00,,,0.00,,2013-03-22 17:42:00,
2013-03-22 13:50:00,43.0,22.0,29.78,NW,326,3.0,8.0,42,0.00,,,0.00,,2013-03-22 17:50:00,
2013-03-22 13:52:00,41.0,20.0,29.79,North,349,3.0,10.0,43,0.00,,,0.00,,2013-03-22 17:52:00,
2013-03-22 14:02:00,42.0,22.0,29.78,WNW,298,3.0,8.0,44,0.00,,,0.00,,2013-03-22 18:02:00,
2013-03-22 14:12:00,42.0,22.0,29.78,WNW,298,3.0,8.0,44,0.00,,,0.00,,2013-03-22 18:12:00,
2013-03-22 14:22:00,43.0,22.0,29.78,NW,326,3.0,8.0,42,0.00,,,0.00,,2013-03-22 18:22:00,
2013-03-22 14:33:00,43.0,22.0,29.78,NW,326,3.0,8.0,42,0.00,,,0.00,,2013-03-22 18:33:00,
2013-03-22 14:42:00,43.0,22.0,29.78,NW,326,3.0,8.0,42,0.00,,,0.00,,2013-03-22 18:42:00,
2013-03-22 15:02:00,41.0,22.0,29.78,NW,306,3.0,8.0,46,0.00,,,0.00,,2013-03-22 19:02:00,
2013-03-22 15:12:00,41.0,22.0,29.78,NW,306,3.0,8.0,46,0.00,,,0.00,,2013-03-22 19:12:00,
2013-03-22 15:22:00,41.0,21.0,29.78,WNW,297,2.0,6.0,45,0.00,,,0.00,,2013-03-22 19:22:00,
2013-03-22 15:32:00,41.0,21.0,29.78,North,3,2.0,9.0,45,0.00,,,0.00,,2013-03-22 19:32:00,
2013-03-22 15:43:00,41.0,21.0,29.78,North,3,2.0,9.0,45,0.00,,,0.00,,2013-03-22 19:43:00,
2013-03-22 15:52:00,41.0,22.0,29.78,West,281,2.0,8.0,47,0.00,,,0.00,,2013-03-22 19:52:00,
2013-03-22 16:02:00,41.0,22.0,29.78,West,281,2.0,8.0,47,0.00,,,0.00,,2013-03-22 20:02:00,
2013-03-22 16:12:00,41.0,22.0,29.78,West,281,2.0,8.0,47,0.00,,,0.00,,2013-03-22 20:12:00,
2013-03-22 16:22:00,41.0,20.0,29.78,North,353,3.0,14.0,43,0.00,,,0.00,,2013-03-22 20:22:00,
2013-03-22 16:32:00,41.0,21.0,29.78,North,5,3.0,14.0,44,0.00,,,0.00,,2013-03-22 20:32:00,
2013-03-22 16:43:00,41.0,21.0,29.78,North,5,3.0,14.0,44,0.00,,,0.00,,2013-03-22 20:43:00,
2013-03-22 16:52:00,42.0,22.0,29.78,WNW,290,3.0,9.0,44,0.00,,,0.00,,2013-03-22 20:52:00,
2013-03-22 17:03:00,42.0,22.0,29.78,WNW,290,3.0,9.0,44,0.00,,,0.00,,2013-03-22 21:03:00,
2013-03-22 17:12:00,42.0,22.0,29.78,WNW,303,2.0,12.0,44,0.00,,,0.00,,2013-03-22 21:12:00,
2013-03-22 17:22:00,42.0,22.0,29.78,WNW,303,2.0,12.0,44,0.00,,,0.00,,2013-03-22 21:22:00,
2013-03-22 17:33:00,42.0,22.0,29.78,WNW,303,2.0,12.0,44,0.00,,,0.00,,2013-03-22 21:33:00,
2013-03-22 17:43:00,42.0,22.0,29.78,WNW,303,2.0,12.0,44,0.00,,,0.00,,2013-03-22 21:43:00,
2013-03-22 17:53:00,42.0,21.0,29.79,NNW,345,3.0,12.0,42,0.00,,,0.00,,2013-03-22 21:53:00,
2013-03-22 18:03:00,42.0,22.0,29.79,WNW,292,2.0,9.0,45,0.00,,,0.00,,2013-03-22 22:03:00,
2013-03-22 18:12:00,42.0,22.0,29.79,WNW,292,2.0,9.0,45,0.00,,,0.00,,2013-03-22 22:12:00,
2013-03-22 18:23:00,42.0,22.0,29.80,NNW,330,1.0,5.0,44,0.00,,,0.00,,2013-03-22 22:23:00,
2013-03-22 18:32:00,41.0,20.0,29.80,WNW,288,1.0,8.0,43,0.00,,,0.00,,2013-03-22 22:32:00,
2013-03-22 18:42:00,41.0,20.0,29.80,WNW,288,1.0,8.0,43,0.00,,,0.00,,2013-03-22 22:42:00,
2013-03-22 18:53:00,41.0,21.0,29.81,NW,325,1.0,6.0,44,0.00,,,0.00,,2013-03-22 22:53:00,
2013-03-22 19:02:00,41.0,21.0,29.81,NW,325,1.0,6.0,44,0.00,,,0.00,,2013-03-22 23:02:00,
2013-03-22 19:12:00,41.0,21.0,29.81,NW,325,1.0,6.0,44,0.00,,,0.00,,2013-03-22 23:12:00,
2013-03-22 19:22:00,40.0,21.0,29.82,WNW,291,3.0,10.0,46,0.00,,,0.00,,2013-03-22 23:22:00,
2013-03-22 19:33:00,40.0,21.0,29.82,NW,304,2.0,6.0,46,0.00,,,0.00,,2013-03-22 23:33:00,
2013-03-22 19:42:00,40.0,21.0,29.82,NW,304,2.0,6.0,46,0.00,,,0.00,,2013-03-22 23:42:00,
2013-03-22 19:52:00,40.0,21.0,29.83,NW,305,1.0,4.0,47,0.00,,,0.00,,2013-03-22 23:52:00,
2013-03-22 20:02:00,40.0,21.0,29.83,NW,305,1.0,4.0,47,0.00,,,0.00,,2013-03-23 00:02:00,
2013-03-22 20:12:00,40.0,21.0,29.83,NW,305,1.0,4.0,47,0.00,,,0.00,,2013-03-23 00:12:00,
2013-03-22 20:23:00,40.0,21.0,29.83,NW,305,1.0,4.0,47,0.00,,,0.00,,2013-03-23 00:23:00,
2013-03-22 20:33:00,37.0,21.0,29.85,North,0,0.0,0.0,53,0.00,,,0.00,,2013-03-23 00:33:00,
2013-03-22 20:42:00,37.0,21.0,29.85,North,0,0.0,0.0,53,0.00,,,0.00,,2013-03-23 00:42:00,
2013-03-22 20:52:00,37.0,21.0,29.85,North,0,0.0,0.0,53,0.00,,,0.00,,2013-03-23 00:52:00,
2013-03-22 21:03:00,37.0,22.0,29.86,North,0,0.0,0.0,55,0.00,,,0.00,,2013-03-23 01:03:00,
2013-03-22 21:12:00,37.0,22.0,29.86,North,0,0.0,0.0,55,0.00,,,0.00,,2013-03-23 01:12:00,
2013-03-22 21:22:00,38.0,22.0,29.86,West,277,0.0,2.0,53,0.00,,,0.00,,2013-03-23 01:22:00,
2013-03-22 21:32:00,38.0,23.0,29.86,WNW,300,0.0,1.0,54,0.00,,,0.00,,2013-03-23 01:32:00,
2013-03-22 21:42:00,38.0,23.0,29.86,WNW,300,0.0,1.0,54,0.00,,,0.00,,2013-03-23 01:42:00,
2013-03-22 21:52:00,37.0,22.0,29.86,NW,312,0.0,3.0,55,0.00,,,0.00,,2013-03-23 01:52:00,
2013-03-22 22:02:00,37.0,22.0,29.86,West,275,0.0,2.0,55,0.00,,,0.00,,2013-03-23 02:02:00,
2013-03-22 22:12:00,37.0,22.0,29.86,West,275,0.0,2.0,55,0.00,,,0.00,,2013-03-23 02:12:00,
2013-03-22 22:22:00,37.0,22.0,29.86,West,275,0.0,2.0,55,0.00,,,0.00,,2013-03-23 02:22:00,
2013-03-22 22:32:00,36.0,23.0,29.87,WNW,283,0.0,1.0,60,0.00,,,0.00,,2013-03-23 02:32:00,
2013-03-22 22:42:00,36.0,23.0,29.87,WNW,283,0.0,1.0,60,0.00,,,0.00,,2013-03-23 02:42:00,
2013-03-22 22:52:00,35.0,24.0,29.86,North,0,0.0,0.0,63,0.00,,,0.00,,2013-03-23 02:52:00,
2013-03-22 23:02:00,34.0,23.0,29.87,North,0,0.0,0.0,65,0.00,,,0.00,,2013-03-23 03:02:00,
2013-03-22 23:12:00,34.0,23.0,29.87,North,0,0.0,0.0,65,0.00,,,0.00,,2013-03-23 03:12:00,
2013-03-22 23:22:00,32.0,23.0,29.87,North,0,0.0,0.0,69,0.00,,,0.00,,2013-03-23 03:22:00,
2013-03-22 23:33:00,31.0,23.0,29.88,North,0,0.0,0.0,72,0.00,,,0.00,,2013-03-23 03:33:00,
2013-03-22 23:43:00,31.0,23.0,29.88,North,0,0.0,0.0,72,0.00,,,0.00,,2013-03-23 03:43:00,
2013-03-22 23:53:00,31.0,23.0,29.88,North,0,0.0,0.0,72,0.00,,,0.00,,2013-03-23 03:53:00,